Location: Stara Lesna
(49.1528°N, 20.2911°E)
Time: 03:43:00
(UTC+02:00)

Meteor 1-27 Rocket - Pass Details

Date: 13 July 2020
Orbit: 830 x 910 km, 81.3° (Epoch: 11 August)

Event Time Altitude Azimuth Distance (km) Brightness Sun altitude
Rises 01:11:33 0° 345° (NNW) 3,421 8.1 -18.8°
Reaches altitude 10° 01:13:59 10° 342° (NNW) 2,491 7.1 -18.8°
Maximum altitude 01:19:32 61° 264° (W) 978 3.9 -18.6°
Enters shadow 01:22:05 32° 197° (SSW) 1,442 4.3 -18.6°
